Austin Bergstrom, TX

3:53 PM CDT on October 17, 2017 (GMT -0500)
Austin Bergstrom International

Weather History for KAUS - June, 2013

Change the Weather History Date:

Thursday, June 20, 2013

  Actual Average Record
Temperature  
Mean Temperature 86 °F 82 °F  
Max Temperature 98 °F 93 °F 103 °F (1998)
Min Temperature 73 °F 71 °F 63 °F (2001)
Degree Days  
Heating Degree Days 0 0  
Month to date heating degree days 0 0  
Since 1 June heating degree days 0 0  
Since 1 July heating degree days 1655 1903  
Cooling Degree Days 21 17  
Month to date cooling degree days 340 310  
Year to date cooling degree days 854 817  
Since 1 June cooling degree days 340 310  
Growing Degree Days 36 (Base 50)    
Moisture  
Dew Point 69 °F    
Average Humidity 62    
Maximum Humidity 93    
Minimum Humidity 30    
Precipitation  
Precipitation 0.00 in 0.17 in 3.54 in (2007)
Month to date precipitation 0.20 3.00  
Year to date precipitation 15.58 16.61  
Snow  
Snow 0.00 in - - ()
Month to date snowfall 0.0  
Since 1 June snowfall 0.0  
Since 1 July snowfall T  
Snow Depth 0.00 in    
Sea Level Pressure  
Sea Level Pressure 29.97 in    
Wind  
Wind Speed 11 mph (South)    
Max Wind Speed 21 mph    
Max Gust Speed 28 mph    
Visibility 10 miles    
Events      
T = Trace of Precipitation, MM = Missing Value Source: NWS Daily Summary

Daily Weather History Graph

Daily Weather History Graph

Search for Another Location

Airport or City:

Trip Planner

Search our weather history database for the weather conditions in past years. The results will help you decide how hot, cold, wet, or windy it might be!

Date:

Astronomy

Jun. 20, 2013 Rise Set
Actual Time 6:29 AM CDT 8:35 PM CDT
Civil Twilight 6:01 AM CDT 9:02 PM CDT
Nautical Twilight 5:28 AM CDT 9:36 PM CDT
Astronomical Twilight 4:52 AM CDT 10:12 PM CDT
Moon 5:45 PM CDT (6/20) 3:47 AM CDT (6/20)
Length of Visible Light 15h 00m
Length of Day
14h 05m
Waxing Gibbous, 89% of the Moon is Illuminated
Jun 20
Waxing Gibbous
Jun 23
Full
Jun 29
Last Quarter
Jul 8
New
Jul 15
First Quarter

Hourly Weather History & Observations

Time (CDT) Temp. Heat Index Dew Point Humidity Pressure Visibility Wind Dir Wind Speed Gust Speed Precip Events Conditions
12:53 AM 81.0 °F 84.4 °F 70.0 °F 69% 29.94 in 10.0 mi South 13.8 mph - N/A   Mostly Cloudy
1:53 AM 78.1 °F - 71.1 °F 79% 29.94 in 10.0 mi South 9.2 mph - N/A   Scattered Clouds
2:53 AM 75.0 °F - 71.1 °F 87% 29.94 in 10.0 mi South 4.6 mph - N/A   Scattered Clouds
3:53 AM 73.9 °F - 70.0 °F 87% 29.94 in 10.0 mi South 4.6 mph - N/A   Partly Cloudy
4:53 AM 73.9 °F - 72.0 °F 93% 29.94 in 10.0 mi SSE 4.6 mph - N/A   Scattered Clouds
5:23 AM 75.2 °F - 71.6 °F 89% 29.98 in 10.0 mi SSE 4.6 mph - N/A   Mostly Cloudy
5:53 AM 75.0 °F - 72.0 °F 90% 29.95 in 10.0 mi South 6.9 mph - N/A   Mostly Cloudy
6:53 AM 73.9 °F - 72.0 °F 93% 29.98 in 10.0 mi South 4.6 mph - N/A   Scattered Clouds
7:10 AM 75.2 °F - 73.4 °F 94% 30.01 in 10.0 mi South 6.9 mph - N/A   Scattered Clouds
7:53 AM 77.0 °F - 73.0 °F 88% 29.99 in 10.0 mi South 10.4 mph - N/A   Scattered Clouds
8:18 AM 78.8 °F - 73.4 °F 83% 30.03 in 10.0 mi South 10.4 mph - N/A   Mostly Cloudy
8:53 AM 81.0 °F 85.8 °F 73.0 °F 77% 30.01 in 10.0 mi South 10.4 mph - N/A   Mostly Cloudy
9:49 AM 84.2 °F 89.6 °F 71.6 °F 66% 30.07 in 10.0 mi South 12.7 mph - N/A   Mostly Cloudy
9:53 AM 84.0 °F 89.6 °F 72.0 °F 67% 30.03 in 10.0 mi SSW 12.7 mph - N/A   Mostly Cloudy
10:53 AM 87.1 °F 92.0 °F 70.0 °F 57% 30.03 in 10.0 mi South 16.1 mph - N/A   Scattered Clouds
11:53 AM 91.0 °F 95.6 °F 69.1 °F 48% 30.02 in 10.0 mi SSW 12.7 mph - N/A   Mostly Cloudy
12:53 PM 93.0 °F 97.4 °F 68.0 °F 44% 30.01 in 10.0 mi SSW 13.8 mph 25.3 mph N/A   Mostly Cloudy
1:53 PM 93.9 °F 97.5 °F 66.9 °F 41% 29.99 in 10.0 mi South 12.7 mph 20.7 mph N/A   Mostly Cloudy
2:53 PM 96.1 °F 98.8 °F 64.9 °F 36% 29.96 in 10.0 mi South 15.0 mph 24.2 mph N/A   Mostly Cloudy
3:53 PM 97.0 °F 99.3 °F 64.0 °F 34% 29.94 in 10.0 mi SSE 17.3 mph 23.0 mph N/A   Mostly Cloudy
4:53 PM 98.1 °F 100.7 °F 64.0 °F 33% 29.93 in 10.0 mi South 8.1 mph - N/A   Mostly Cloudy
5:53 PM 95.0 °F 97.0 °F 64.0 °F 36% 29.92 in 10.0 mi South 12.7 mph 20.7 mph N/A   Scattered Clouds
6:53 PM 96.1 °F 96.4 °F 61.0 °F 31% 29.91 in 10.0 mi SSE 15.0 mph 21.9 mph N/A   Partly Cloudy
7:53 PM 93.0 °F 95.0 °F 64.9 °F 39% 29.92 in 10.0 mi SSE 13.8 mph 24.2 mph N/A   Partly Cloudy
8:53 PM 89.1 °F 90.3 °F 64.0 °F 43% 29.93 in 10.0 mi SSE 16.1 mph - N/A   Partly Cloudy
9:53 PM 86.0 °F 89.4 °F 68.0 °F 55% 29.96 in 10.0 mi SSE 12.7 mph 21.9 mph N/A   Clear
10:53 PM 84.0 °F 89.0 °F 71.1 °F 65% 29.99 in 10.0 mi SSE 10.4 mph - N/A   Clear
11:53 PM 81.0 °F 85.2 °F 72.0 °F 74% 30.02 in 10.0 mi South 8.1 mph - N/A   Clear